TIANLIAN 1-04 (41869 NORAD) Tracking and Keplerian Element Data

This shows tracking and keplerian element data for the satellite.

Feedback or suggestion? Click here.




ElementValue
Catalog41869
NameTIANLIAN 1-04
Epoch Orbit1256
Epoch Day91.96091075
Epoch Year2020
RAAN282.4476
Inclination0.4056
Eccentricity0.0015785
Argument of Perigee158.977
Mean Anonmoly171.4043
Mean Motion1.00272759
Decay Rate-1.12E-06
L11 41869U 16072A 20091.96091075 -.00000112 00000-0 00000-0 0 9998
L22 41869 0.4056 282.4476 0015785 158.9770 171.4043 1.00272759 12568

Live tracking and technical data element details for TIANLIAN 1-04 (NORAD 41869). TIANLIAN 1-04 can be tracked NOW for your location showing map with azimuth and elevation plus other details from your city location.

Track the satellite on the map from your city or location and see movement details for azimuth, elevation, latitude, longitude, range, height, and movement on the map or in text.







IsCatalogInMostPopularTable: catalog: 41869, numindb: 329
Update: records affected: 1



GetName: 41869 TIANLIAN 1-04

Hit Count: updated at: Thu, 02 Apr 2020 04:32:58 GMT